Theta_e
333 340 341 339 339 338 340 339 331 328 333 331 332 336 339 338 342 340 327 327 327 332 338 336 336 333 327 326 327 329 331 332 333 330 331 330 330 329 332 329 328 329 329 328 328 330 329 327 322
337 338 338 335 340 340 339 335 334 330 331 330 332 334 337 340 334 325 329 328 325 335 336 335 331 326 325 329 328 329 330 331 333 332 331 330 332 334 331 328 328 328 328 328 329 329 328 325 321
337 337 334 338 337 338 338 335 333 330 330 333 336 335 337 337 332 328 328 328 323 336 336 331 327 325 327 330 325 327 329 330 331 332 332 333 333 331 329 328 329 328 328 328 329 330 326 322 321
335 331 331 334 336 333 335 334 333 330 330 331 336 339 335 335 332 326 329 329 325 335 335 327 324 323 329 331 326 328 329 330 331 331 332 333 331 327 327 328 328 328 327 327 328 326 321 321 320
334 328 334 335 333 331 331 332 331 332 331 329 337 339 334 332 330 327 331 331 330 330 334 326 326 323 331 332 326 327 329 329 329 329 330 328 325 325 327 328 328 327 326 326 325 322 322 322 321
324 329 333 336 332 329 331 330 331 331 331 332 337 336 335 328 327 328 332 334 331 329 326 328 325 321 331 331 323 323 325 327 327 326 324 323 324 324 326 324 323 322 322 322 322 322 322 323 322
320 321 330 331 329 326 327 327 330 331 330 331 335 339 335 330 327 331 332 335 336 332 333 330 325 324 331 328 327 327 326 325 324 323 323 323 322 322 322 322 322 323 323 323 324 324 323 323 323
316 317 324 325 327 325 325 327 326 330 330 328 334 339 338 332 326 330 335 335 336 335 334 330 326 324 331 328 330 330 329 328 325 323 322 322 323 324 323 323 323 324 324 324 325 326 326 326 326
322 317 321 324 325 326 327 330 327 329 331 331 331 334 332 333 326 327 336 336 335 333 333 330 327 325 327 327 329 328 329 327 325 323 326 327 326 324 323 323 324 325 324 324 324 325 324 326 326
327 317 320 320 321 323 323 327 328 331 332 332 336 334 334 333 328 325 333 333 333 332 332 331 328 328 325 324 328 326 324 323 323 325 327 327 326 325 326 325 326 325 324 322 324 324 323 322 324
325 319 319 320 320 319 322 324 326 329 333 331 338 335 333 333 329 325 331 333 333 330 331 331 329 330 330 328 324 323 322 326 326 328 327 327 325 327 326 326 325 325 323 322 321 320 321 320 321
331 325 325 320 319 318 321 323 326 328 329 329 335 333 332 333 327 325 328 333 333 331 330 331 328 330 331 330 326 325 327 328 328 328 326 327 327 326 326 328 327 326 322 322 320 319 319 319 319
329 328 327 326 325 319 319 323 324 326 326 329 334 333 333 333 328 326 327 331 332 332 330 329 330 332 332 328 329 327 328 328 327 327 327 328 327 327 329 327 325 324 321 322 321 320 319 318 317
327 327 327 325 325 323 322 322 325 325 324 334 335 333 333 331 329 327 326 327 330 330 329 328 329 331 329 327 328 327 327 327 327 327 328 328 327 328 326 326 325 324 321 321 322 322 318 316 315
326 329 327 326 325 323 319 321 324 321 329 336 334 331 331 330 330 328 325 326 327 328 328 327 327 329 327 327 328 328 328 327 328 329 328 329 328 327 326 327 324 320 318 321 319 318 316 316 314
328 328 331 328 325 324 322 323 322 320 333 336 334 331 331 330 331 331 330 326 326 327 328 327 327 328 328 328 328 328 327 328 329 329 330 329 329 327 326 325 320 315 320 320 318 317 316 314 313
328 331 330 328 326 326 322 324 321 320 329 333 334 333 333 332 331 331 331 326 327 327 327 327 328 328 329 329 328 327 328 328 330 330 328 328 328 328 327 323 315 316 319 320 318 316 316 314 312
330 331 327 329 327 326 326 326 323 320 325 331 332 333 333 332 332 331 330 327 327 327 327 327 328 328 329 329 328 327 329 330 328 329 328 327 327 327 325 318 314 316 319 320 317 316 315 313 311
325 327 327 325 324 328 329 326 325 322 325 328 330 332 333 333 331 329 329 327 327 328 328 328 328 329 330 329 328 329 329 329 327 329 327 326 326 325 322 314 315 315 316 318 318 315 314 313 310
325 327 327 325 324 328 329 324 323 323 324 327 329 332 333 332 330 329 329 328 328 328 328 328 329 329 330 329 329 329 330 328 327 327 325 325 323 322 319 314 314 312 313 317 318 314 314 310 310
326 326 327 328 329 329 330 330 325 321 324 324 327 329 332 331 331 330 329 329 329 329 328 329 329 329 330 329 329 329 329 326 325 324 324 323 321 321 317 314 312 310 309 316 316 314 313 312 310
330 324 326 328 330 334 330 337 330 324 323 325 326 325 330 330 330 330 330 330 330 330 330 329 330 330 330 330 330 329 326 323 324 324 323 322 320 319 315 313 311 308 305 307 315 315 314 313 310
325 325 325 327 331 331 331 334 330 325 324 326 326 322 327 329 328 329 329 330 330 331 331 330 330 330 330 331 330 329 326 324 323 322 321 320 317 316 314 312 310 306 303 301 304 311 313 311 308
323 323 322 322 329 331 331 331 331 327 325 324 326 325 323 325 325 327 329 330 330 330 331 331 330 331 330 331 330 329 327 324 322 319 318 317 316 314 312 309 307 303 300 300 299 302 306 308 307
324 328 325 327 328 332 328 331 330 325 324 324 322 323 322 323 322 326 326 328 330 329 330 331 331 331 331 330 329 329 327 326 323 320 319 316 314 312 309 307 305 301 299 299 299 299 299 301 301
327 326 326 331 330 328 326 333 331 325 323 321 322 322 322 322 322 324 325 328 329 330 330 331 332 331 331 330 329 329 328 327 323 322 321 319 320 319 311 305 303 300 299 299 299 298 298 298 297
321 326 321 323 315 325 328 326 323 322 322 317 319 317 321 322 322 322 324 327 328 329 330 331 331 331 332 331 329 328 327 327 326 324 322 320 318 317 311 304 302 298 298 298 298 297 297 296 295
322 318 325 321 328 332 323 323 329 318 322 317 316 313 319 320 322 321 324 327 327 328 329 330 331 331 332 332 331 328 328 327 326 324 323 321 318 313 309 303 300 298 298 297 297 296 295 295 294
319 319 319 322 322 328 324 323 307 306 310 321 315 311 310 311 315 316 316 321 323 325 327 329 330 330 331 332 330 329 328 326 325 324 323 320 317 311 308 303 299 298 297 296 296 295 295 294 293
316 319 321 326 323 320 318 320 304 305 305 306 311 308 308 308 307 308 308 312 316 320 324 327 329 330 330 330 329 329 327 324 323 321 320 317 314 309 306 303 299 297 296 296 295 295 294 294 293
Wind_Speed
7 8 5 2 3 4 3 6 4 4 4 3 6 10 10 3 3 3 22 23 28 29 25 23 22 20 18 17 17 19 20 20 20 19 19 19 18 18 18 18 18 17 16 16 16 16 17 15 16
4 6 2 1 3 1 3 6 6 3 7 7 10 7 7 3 4 11 17 29 28 31 28 23 21 20 19 18 17 20 20 20 19 20 18 18 17 19 18 17 17 16 15 15 15 15 15 16 17
4 1 3 2 3 4 3 2 6 3 6 5 5 7 5 4 6 10 30 29 30 28 27 24 21 20 21 19 17 19 19 19 18 18 18 20 19 17 16 15 15 15 14 14 13 14 14 15 15
3 3 3 1 5 5 4 7 5 7 4 7 7 7 4 7 10 20 33 27 30 27 26 23 21 21 22 18 17 19 19 20 19 18 17 18 17 15 14 14 13 13 13 12 12 13 15 15 16
0 2 1 3 5 4 1 12 7 4 6 6 5 2 4 4 25 35 32 29 32 28 25 22 21 21 22 18 17 19 19 19 18 18 17 16 14 14 13 12 13 12 12 12 13 13 14 14 15
1 2 1 4 4 5 5 16 6 6 5 8 7 6 3 25 34 32 31 29 30 29 26 23 20 21 21 19 18 19 19 19 18 17 16 15 14 13 13 13 13 13 12 12 11 11 12 13 12
3 3 4 4 3 6 5 9 8 8 7 6 13 5 6 12 30 30 31 26 25 26 26 23 21 22 20 19 19 17 18 17 16 15 15 14 14 14 14 13 13 12 11 11 11 10 11 12 11
1 3 2 4 5 6 3 3 5 8 7 9 10 8 8 16 31 28 27 27 25 24 25 23 21 22 22 21 18 17 16 16 14 14 15 14 14 13 12 11 11 11 11 12 13 13 10 10 10
4 2 4 5 5 5 2 3 4 0 7 4 2 8 12 38 35 29 32 29 26 24 24 22 22 22 22 21 18 17 15 13 13 14 15 14 13 11 11 11 11 11 13 12 12 13 12 10 11
4 4 7 6 7 2 6 3 5 4 5 4 5 11 34 37 34 27 27 24 30 27 23 22 22 23 21 20 18 16 15 13 14 14 12 10 11 8 9 11 10 10 8 9 9 9 9 10 9
6 5 4 7 4 6 7 7 3 6 3 6 11 14 21 27 22 24 24 26 29 28 26 25 23 23 21 18 18 17 16 15 15 12 11 12 11 7 5 7 6 6 8 6 6 5 6 9 7
4 7 6 7 4 5 7 7 3 6 6 11 19 20 19 15 17 24 23 29 33 33 27 29 26 26 23 20 20 18 18 15 13 13 13 12 9 8 7 8 6 3 6 5 4 5 5 10 10
17 4 5 10 8 10 8 8 4 8 7 12 17 18 21 14 18 22 25 30 33 33 27 31 27 26 24 21 21 18 18 18 17 17 14 13 10 8 5 4 1 2 4 5 7 9 12 15 13
15 18 11 9 12 9 12 10 2 5 4 16 19 17 19 16 17 21 27 30 35 34 29 32 29 26 26 22 22 20 18 17 17 18 15 13 9 8 5 4 3 3 5 7 8 9 11 13 11
12 10 18 11 11 6 7 11 8 8 8 18 16 15 16 15 17 24 28 31 36 36 33 32 31 28 25 23 22 22 21 20 18 16 14 14 11 8 6 5 3 3 10 10 9 9 13 12 13
17 5 7 17 10 8 5 9 9 8 13 14 14 13 15 16 21 24 24 30 34 35 36 33 32 31 28 24 23 22 21 21 19 19 16 14 13 10 8 6 5 7 13 11 9 11 12 12 11
14 12 14 17 14 6 10 6 15 7 14 13 14 15 15 15 18 26 26 31 37 38 38 36 34 32 30 26 25 23 23 22 19 17 15 14 13 12 9 7 7 11 14 14 13 13 12 10 11
19 24 20 22 19 18 10 12 9 7 15 17 15 15 15 17 21 30 29 34 38 38 38 38 35 33 31 27 25 25 23 21 18 17 15 14 14 13 11 10 11 12 15 15 16 16 12 11 17
16 13 20 14 14 15 16 11 14 14 12 16 15 15 16 19 21 27 29 33 38 39 38 41 38 36 34 32 32 29 29 24 21 20 18 16 15 14 12 12 13 13 14 15 17 17 17 18 19
18 14 18 4 14 6 5 14 14 12 11 16 18 18 19 15 15 21 27 32 36 38 40 40 41 39 37 35 36 33 32 25 23 21 20 18 16 14 13 13 14 14 16 15 16 17 19 20 19
17 22 17 11 5 12 3 12 14 8 7 9 14 19 17 21 20 18 25 29 33 35 38 42 42 42 40 38 34 30 28 23 24 24 23 20 17 16 15 14 14 15 16 18 17 17 19 16 17
18 15 14 11 14 9 18 8 24 14 12 10 14 13 18 20 20 18 24 30 33 37 39 39 41 43 41 40 38 38 35 28 32 32 26 22 20 19 17 15 15 14 15 18 19 18 17 15 15
16 13 14 15 13 5 11 9 16 15 21 18 18 10 18 21 22 22 24 35 37 36 39 42 41 41 39 44 43 41 35 34 27 27 25 24 22 19 18 18 17 16 16 15 17 19 18 15 14
9 12 5 2 11 8 12 14 11 23 26 16 16 17 15 20 21 23 34 32 33 33 36 37 39 40 40 45 43 44 41 36 29 28 28 27 24 22 20 19 18 17 17 16 17 17 16 16 14
9 13 3 3 4 3 16 12 19 12 19 22 20 19 14 17 19 21 20 25 31 34 38 38 38 38 43 45 44 46 42 38 34 32 33 31 28 25 23 23 21 19 18 16 16 16 15 15 15
15 11 4 5 4 3 6 12 12 18 15 8 19 19 20 16 18 20 23 31 35 38 39 40 41 38 41 44 42 45 41 36 35 32 33 34 32 28 25 23 21 20 19 18 17 16 16 15 15
3 8 2 5 2 3 5 3 5 8 9 8 8 10 17 19 16 20 20 32 34 35 39 41 40 38 40 42 37 40 40 38 37 34 31 33 30 27 25 24 22 22 20 19 19 19 18 16 14
5 9 4 1 5 4 3 3 5 6 16 10 8 9 15 13 16 12 17 27 31 35 37 36 38 38 39 39 38 40 38 36 36 33 32 32 30 27 26 26 24 24 22 21 20 20 18 16 15
4 4 3 3 1 3 2 4 2 5 5 10 5 6 8 8 7 7 8 18 24 27 33 37 38 37 40 42 40 38 36 35 34 33 33 32 31 28 28 28 27 26 25 24 22 21 19 18 17
4 4 4 3 5 1 1 2 3 4 6 6 3 7 4 6 7 6 7 12 20 26 30 34 34 34 34 36 36 36 34 32 31 31 32 32 31 27 28 28 28 27 26 25 24 23 21 20 18
Wind_Direction
71 88 57 338 56 72 255 278 6 95 55 3 86 93 113 40 57 149 138 150 143 140 138 138 133 128 120 116 116 111 110 111 110 108 104 104 102 102 97 88 86 81 78 74 72 69 63 60 68
84 71 78 51 103 117 279 239 303 155 142 95 78 130 54 73 60 113 114 145 150 143 144 143 136 128 121 114 113 115 114 116 112 109 111 106 108 102 94 90 88 81 75 74 70 68 64 66 73
79 211 81 140 190 179 205 272 308 121 120 102 93 57 93 111 97 135 142 146 147 146 146 143 137 131 125 124 117 116 115 116 117 113 106 107 104 99 93 90 86 82 77 75 72 72 69 73 73
59 23 25 156 226 259 177 306 243 124 77 103 117 65 67 184 126 136 146 145 147 151 147 143 139 135 131 132 120 119 117 117 117 116 109 104 103 99 95 93 90 88 82 81 79 74 73 71 71
23 75 144 222 251 258 19 246 234 118 144 125 111 91 92 75 140 143 145 146 153 156 152 145 140 138 136 137 126 125 122 118 117 115 114 112 108 102 97 95 94 92 89 87 85 81 76 73 74
22 138 134 222 249 273 159 245 196 148 165 133 88 104 102 137 140 147 148 151 158 152 151 146 143 140 142 138 130 127 125 123 120 117 115 113 109 105 103 100 97 93 91 88 82 77 73 71 72
135 98 213 223 246 295 184 218 180 176 176 158 142 101 137 142 148 150 150 146 151 153 150 149 148 146 147 141 133 128 129 127 120 118 116 114 110 107 102 98 96 92 87 81 74 69 72 75 79
102 104 233 227 226 263 276 208 184 159 203 122 141 160 168 175 156 157 162 159 158 159 157 155 154 153 151 147 143 149 140 135 127 121 116 112 108 107 99 97 90 85 81 78 76 75 84 83 82
7 103 208 212 176 233 308 213 324 171 117 69 72 151 164 159 158 157 152 151 156 160 161 161 161 159 157 156 152 152 152 148 139 130 126 118 106 95 93 90 85 87 82 79 78 79 70 71 96
173 189 209 210 237 9 320 289 194 118 127 66 71 84 141 157 164 157 151 153 154 162 167 171 168 164 163 165 162 160 158 155 144 137 132 138 134 112 101 94 76 80 75 57 78 85 73 69 93
186 206 230 270 299 11 310 311 246 126 207 190 153 139 150 159 167 162 154 161 161 169 172 178 173 170 169 173 169 167 162 154 148 138 138 135 139 117 125 99 87 88 69 71 106 67 74 96 97
179 221 247 280 360 321 293 329 306 196 188 157 156 155 158 168 172 165 154 163 164 171 177 176 178 178 180 180 171 165 166 167 162 158 156 158 144 122 123 115 107 109 82 89 116 105 90 98 111
210 252 265 275 325 302 266 262 215 263 222 136 143 153 166 171 174 169 159 168 173 177 176 175 177 178 176 172 174 176 177 177 175 169 158 157 154 151 154 112 80 69 117 101 114 113 102 104 107
176 220 255 286 293 292 295 267 66 279 197 141 151 164 172 174 168 166 169 166 175 184 181 175 178 179 174 176 179 182 180 175 170 168 168 166 162 160 149 183 161 127 125 120 119 112 112 114 112
138 192 234 257 263 261 297 276 221 251 144 151 164 165 172 182 182 180 177 176 177 184 180 178 182 182 184 183 184 184 182 175 175 174 176 178 162 170 168 201 174 123 132 133 125 98 120 118 115
191 179 192 222 230 230 196 266 244 222 150 165 161 166 172 185 194 193 185 180 179 180 180 181 184 185 185 184 183 185 182 177 178 179 183 180 177 172 183 188 161 136 140 150 139 135 132 121 121
179 203 201 234 237 243 182 252 251 220 170 167 172 174 177 183 192 203 200 183 181 184 182 184 187 186 187 186 186 186 182 182 186 192 193 192 188 186 195 184 166 152 150 155 152 140 148 139 137
191 207 193 207 204 237 225 244 268 231 182 180 180 178 180 187 194 194 201 186 185 187 187 187 188 188 187 185 184 184 183 182 188 203 199 194 189 191 193 186 170 164 164 160 156 151 157 153 142
201 209 205 205 220 203 222 234 239 257 217 186 181 182 187 195 191 190 196 184 185 188 187 189 187 190 187 184 182 185 186 187 193 203 202 199 193 193 192 183 176 174 173 169 169 160 161 158 159
188 191 203 150 199 234 250 234 244 241 216 197 185 189 189 178 181 183 186 183 185 185 189 190 191 190 190 189 188 189 184 186 200 201 201 203 198 193 195 189 184 181 175 172 174 174 160 163 177
193 195 189 189 105 213 317 270 256 250 221 210 197 191 185 181 184 187 191 187 186 187 190 192 192 193 193 194 190 188 187 190 197 201 206 204 200 198 199 197 192 187 183 180 176 171 173 170 188
209 183 169 171 170 208 188 244 237 233 238 208 202 184 183 187 190 187 190 194 192 194 193 192 192 193 194 196 193 193 188 188 207 207 204 204 201 200 201 199 198 194 187 185 184 185 192 196 191
216 193 192 172 180 171 195 228 235 214 228 210 207 188 188 188 187 188 192 196 196 192 192 192 192 193 193 198 199 199 197 204 209 204 203 202 201 201 202 201 196 196 192 187 190 195 198 198 195
127 110 82 147 196 227 205 199 222 222 215 206 202 204 187 192 191 190 192 190 193 192 190 189 189 193 196 198 199 203 204 204 204 199 199 199 200 200 202 201 195 195 193 188 190 195 199 200 199
157 154 136 136 196 221 177 204 227 212 206 202 196 204 189 190 193 191 183 184 189 190 190 190 188 192 197 198 200 206 210 209 210 204 201 197 199 200 201 198 195 194 191 189 189 189 191 189 193
165 163 160 149 188 155 180 226 237 246 253 230 206 206 200 183 193 192 187 189 189 191 191 192 193 194 195 196 202 207 211 211 215 213 209 206 208 208 201 197 193 193 189 188 187 186 187 185 183
191 158 69 115 15 127 210 282 300 221 248 211 211 201 207 200 189 191 192 191 192 192 196 194 193 197 196 195 198 202 208 211 214 216 216 215 214 209 201 198 192 191 189 190 188 188 186 182 177
168 144 127 330 155 205 260 261 215 226 230 212 208 206 212 212 201 187 192 192 191 194 196 195 195 196 197 193 196 203 211 216 214 213 214 219 216 206 199 196 193 191 191 190 190 188 185 182 179
121 125 86 100 158 186 137 257 304 299 312 233 223 198 178 162 186 180 173 181 181 183 186 188 189 193 197 199 199 207 205 208 208 211 215 217 211 204 199 197 192 192 192 191 191 191 185 186 184
332 164 153 154 178 135 113 304 322 305 346 12 32 143 134 118 110 99 104 128 152 167 180 186 185 189 195 198 199 204 206 205 204 208 215 212 206 202 200 197 195 195 194 195 194 192 191 193 190